Time,TemperatureF,DewpointF,PressureIn,WindDirection,WindDirectionDegrees,WindSpeedMPH,WindSpeedGustMPH,Humidity,HourlyPrecipIn,Conditions,Clouds,dailyrainin,SoftwareType,DateUTC
2013-05-10 00:01:00,58.0,36.0,30.00,North,5,0.0,2.0,43,0.00,,,0.00,,2013-05-10 06:01:00,
2013-05-10 00:12:00,58.0,36.0,30.00,North,5,0.0,2.0,43,0.00,,,0.00,,2013-05-10 06:12:00,
2013-05-10 00:21:00,57.0,35.0,29.99,North,5,0.0,3.0,44,0.00,,,0.00,,2013-05-10 06:21:00,
2013-05-10 00:32:00,56.0,36.0,30.01,NW,309,8.0,12.0,47,0.00,,,0.00,,2013-05-10 06:32:00,
2013-05-10 00:41:00,56.0,36.0,30.01,NW,309,8.0,12.0,47,0.00,,,0.00,,2013-05-10 06:41:00,
2013-05-10 00:51:00,55.0,36.0,30.01,NW,309,3.0,8.0,49,0.00,,,0.00,,2013-05-10 06:51:00,
2013-05-10 01:01:00,54.0,36.0,30.01,NW,309,4.0,7.0,51,0.00,,,0.00,,2013-05-10 07:01:00,
2013-05-10 01:11:00,54.0,36.0,30.01,NW,309,4.0,7.0,51,0.00,,,0.00,,2013-05-10 07:11:00,
2013-05-10 01:22:00,54.0,37.0,30.01,NW,309,2.0,4.0,52,0.00,,,0.00,,2013-05-10 07:22:00,
2013-05-10 01:31:00,53.0,37.0,30.02,NW,309,4.0,8.0,54,0.00,,,0.00,,2013-05-10 07:31:00,
2013-05-10 01:42:00,53.0,37.0,30.02,NW,309,5.0,7.0,55,0.00,,,0.00,,2013-05-10 07:42:00,
2013-05-10 01:52:00,53.0,37.0,30.02,NW,309,5.0,7.0,55,0.00,,,0.00,,2013-05-10 07:52:00,
2013-05-10 02:02:00,53.0,38.0,30.02,NW,309,2.0,7.0,56,0.00,,,0.00,,2013-05-10 08:02:00,
2013-05-10 02:12:00,53.0,38.0,30.02,NW,309,2.0,7.0,56,0.00,,,0.00,,2013-05-10 08:12:00,
2013-05-10 02:21:00,52.0,37.0,30.02,NW,309,0.0,4.0,57,0.00,,,0.00,,2013-05-10 08:21:00,
2013-05-10 02:32:00,51.0,37.0,30.03,NW,309,0.0,4.0,59,0.00,,,0.00,,2013-05-10 08:32:00,
2013-05-10 02:42:00,51.0,37.0,30.03,NW,309,0.0,4.0,59,0.00,,,0.00,,2013-05-10 08:42:00,
2013-05-10 02:52:00,50.0,36.0,30.03,NW,309,0.0,2.0,59,0.00,,,0.00,,2013-05-10 08:52:00,
2013-05-10 03:01:00,49.0,37.0,30.03,NW,309,0.0,0.0,62,0.00,,,0.00,,2013-05-10 09:01:00,
2013-05-10 03:11:00,49.0,37.0,30.03,NW,309,0.0,0.0,62,0.00,,,0.00,,2013-05-10 09:11:00,
2013-05-10 03:21:00,49.0,37.0,30.04,NW,309,0.0,2.0,63,0.00,,,0.00,,2013-05-10 09:21:00,
2013-05-10 03:32:00,49.0,37.0,30.05,NW,309,0.0,1.0,62,0.00,,,0.00,,2013-05-10 09:32:00,
2013-05-10 03:42:00,49.0,37.0,30.05,NW,309,0.0,1.0,62,0.00,,,0.00,,2013-05-10 09:42:00,
2013-05-10 03:52:00,50.0,37.0,30.05,NW,309,1.0,4.0,61,0.00,,,0.00,,2013-05-10 09:52:00,
2013-05-10 04:02:00,49.0,36.0,30.05,NW,309,0.0,4.0,61,0.00,,,0.00,,2013-05-10 10:02:00,
2013-05-10 04:12:00,49.0,36.0,30.05,NW,309,0.0,4.0,61,0.00,,,0.00,,2013-05-10 10:12:00,
2013-05-10 04:23:00,48.0,37.0,30.05,NW,309,1.0,2.0,65,0.00,,,0.00,,2013-05-10 10:23:00,
2013-05-10 04:32:00,47.0,36.0,30.06,NW,309,0.0,1.0,65,0.00,,,0.00,,2013-05-10 10:32:00,
2013-05-10 04:41:00,47.0,36.0,30.06,NW,309,0.0,1.0,65,0.00,,,0.00,,2013-05-10 10:41:00,
2013-05-10 04:52:00,46.0,36.0,30.06,NW,309,0.0,0.0,67,0.00,,,0.00,,2013-05-10 10:52:00,
2013-05-10 05:02:00,45.0,35.0,30.06,NW,309,0.0,2.0,69,0.00,,,0.00,,2013-05-10 11:02:00,
2013-05-10 05:12:00,45.0,36.0,30.06,NW,309,0.0,3.0,71,0.00,,,0.00,,2013-05-10 11:12:00,
2013-05-10 05:21:00,45.0,36.0,30.06,NW,309,0.0,3.0,71,0.00,,,0.00,,2013-05-10 11:21:00,
2013-05-10 05:32:00,45.0,36.0,30.06,NW,309,0.0,2.0,70,0.00,,,0.00,,2013-05-10 11:32:00,
2013-05-10 05:42:00,45.0,36.0,30.06,NW,309,0.0,2.0,70,0.00,,,0.00,,2013-05-10 11:42:00,
2013-05-10 05:51:00,45.0,36.0,30.06,NW,309,1.0,3.0,70,0.00,,,0.00,,2013-05-10 11:51:00,
2013-05-10 06:01:00,44.0,35.0,30.07,NW,309,3.0,5.0,71,0.00,,,0.00,,2013-05-10 12:01:00,
2013-05-10 06:11:00,44.0,35.0,30.07,NW,309,3.0,5.0,71,0.00,,,0.00,,2013-05-10 12:11:00,
2013-05-10 06:21:00,44.0,35.0,30.06,NW,309,2.0,6.0,71,0.00,,,0.00,,2013-05-10 12:21:00,
2013-05-10 06:32:00,44.0,35.0,30.07,NW,309,1.0,4.0,70,0.00,,,0.00,,2013-05-10 12:32:00,
2013-05-10 06:41:00,44.0,35.0,30.07,NW,309,1.0,4.0,70,0.00,,,0.00,,2013-05-10 12:41:00,
2013-05-10 06:51:00,43.0,34.0,30.08,NW,309,0.0,3.0,71,0.00,,,0.00,,2013-05-10 12:51:00,
2013-05-10 07:01:00,44.0,35.0,30.08,NW,309,1.0,4.0,71,0.00,,,0.00,,2013-05-10 13:01:00,
2013-05-10 07:11:00,44.0,35.0,30.08,NW,309,1.0,4.0,71,0.00,,,0.00,,2013-05-10 13:11:00,
2013-05-10 07:21:00,45.0,36.0,30.08,NW,309,0.0,4.0,70,0.00,,,0.00,,2013-05-10 13:21:00,
2013-05-10 07:31:00,46.0,36.0,30.09,NW,309,0.0,2.0,69,0.00,,,0.00,,2013-05-10 13:31:00,
2013-05-10 07:41:00,46.0,36.0,30.09,NW,309,0.0,2.0,69,0.00,,,0.00,,2013-05-10 13:41:00,
2013-05-10 07:52:00,48.0,37.0,30.09,NW,309,0.0,0.0,65,0.00,,,0.00,,2013-05-10 13:52:00,
2013-05-10 08:01:00,51.0,37.0,30.09,NW,309,0.0,1.0,59,0.00,,,0.00,,2013-05-10 14:01:00,
2013-05-10 08:11:00,51.0,37.0,30.09,NW,309,0.0,1.0,59,0.00,,,0.00,,2013-05-10 14:11:00,
2013-05-10 08:21:00,52.0,37.0,30.09,NW,309,0.0,2.0,57,0.00,,,0.00,,2013-05-10 14:21:00,
2013-05-10 08:32:00,53.0,38.0,30.09,NW,309,0.0,4.0,56,0.00,,,0.00,,2013-05-10 14:32:00,
2013-05-10 08:41:00,53.0,38.0,30.09,NW,309,0.0,4.0,56,0.00,,,0.00,,2013-05-10 14:41:00,
2013-05-10 08:51:00,54.0,39.0,30.09,NW,309,1.0,4.0,56,0.00,,,0.00,,2013-05-10 14:51:00,
2013-05-10 09:01:00,55.0,38.0,30.09,NW,309,0.0,3.0,53,0.00,,,0.00,,2013-05-10 15:01:00,
2013-05-10 09:20:00,-999.0,-99.9,30.09,NW,309,0.0,3.0,50,0.00,,,0.00,,2013-05-10 15:20:00,
2013-05-10 09:32:00,60.0,38.0,30.09,NW,309,0.0,1.0,44,0.00,,,0.00,,2013-05-10 15:32:00,
2013-05-10 09:42:00,62.0,40.0,30.09,NW,309,0.0,5.0,44,0.00,,,0.00,,2013-05-10 15:42:00,
2013-05-10 09:52:00,62.0,40.0,30.09,NW,309,0.0,5.0,44,0.00,,,0.00,,2013-05-10 15:52:00,
2013-05-10 10:02:00,63.0,39.0,30.09,NW,309,0.0,1.0,41,0.00,,,0.00,,2013-05-10 16:02:00,
2013-05-10 10:12:00,64.0,39.0,30.08,NW,309,2.0,7.0,40,0.00,,,0.00,,2013-05-10 16:12:00,
2013-05-10 10:23:00,64.0,39.0,30.08,NW,309,2.0,7.0,40,0.00,,,0.00,,2013-05-10 16:23:00,
2013-05-10 10:32:00,65.0,39.0,30.09,NW,309,1.0,4.0,39,0.00,,,0.00,,2013-05-10 16:32:00,
2013-05-10 10:42:00,66.0,40.0,30.08,NW,309,1.0,5.0,38,0.00,,,0.00,,2013-05-10 16:42:00,
2013-05-10 10:52:00,66.0,40.0,30.08,NW,309,1.0,5.0,38,0.00,,,0.00,,2013-05-10 16:52:00,
2013-05-10 11:02:00,67.0,39.0,30.08,NW,309,0.0,4.0,36,0.00,,,0.00,,2013-05-10 17:02:00,
2013-05-10 11:12:00,67.0,39.0,30.08,NW,309,0.0,4.0,36,0.00,,,0.00,,2013-05-10 17:12:00,
2013-05-10 11:21:00,68.0,39.0,30.08,NW,309,2.0,4.0,34,0.00,,,0.00,,2013-05-10 17:21:00,
2013-05-10 11:32:00,69.0,39.0,30.08,NW,309,0.0,5.0,33,0.00,,,0.00,,2013-05-10 17:32:00,
2013-05-10 11:42:00,70.0,39.0,30.08,NW,309,0.0,6.0,32,0.00,,,0.00,,2013-05-10 17:42:00,
2013-05-10 11:52:00,70.0,39.0,30.08,NW,309,0.0,6.0,32,0.00,,,0.00,,2013-05-10 17:52:00,
2013-05-10 12:10:00,-999.0,-99.9,30.08,NW,309,0.0,6.0,31,0.00,,,0.00,,2013-05-10 18:10:00,
2013-05-10 12:21:00,70.0,37.0,30.08,NW,309,0.0,4.0,30,0.00,,,0.00,,2013-05-10 18:21:00,
2013-05-10 12:34:00,70.0,37.0,30.08,NW,309,0.0,4.0,30,0.00,,,0.00,,2013-05-10 18:34:00,
2013-05-10 12:43:00,71.0,37.0,30.08,NW,309,2.0,5.0,29,0.00,,,0.00,,2013-05-10 18:43:00,
2013-05-10 12:54:00,71.0,37.0,30.08,NW,309,2.0,5.0,29,0.00,,,0.00,,2013-05-10 18:54:00,
2013-05-10 13:02:00,72.0,35.0,30.07,NW,309,0.0,8.0,26,0.00,,,0.00,,2013-05-10 19:02:00,
2013-05-10 13:11:00,72.0,35.0,30.07,NW,309,0.0,8.0,26,0.00,,,0.00,,2013-05-10 19:11:00,
2013-05-10 13:21:00,74.0,34.0,30.07,ENE,57,3.0,14.0,23,0.00,,,0.00,,2013-05-10 19:21:00,
2013-05-10 13:32:00,73.0,36.0,30.07,ENE,63,9.0,21.0,26,0.00,,,0.00,,2013-05-10 19:32:00,
2013-05-10 13:42:00,73.0,33.0,30.08,ENE,64,15.0,23.0,23,0.00,,,0.00,,2013-05-10 19:42:00,
2013-05-10 13:52:00,73.0,33.0,30.08,ENE,64,15.0,23.0,23,0.00,,,0.00,,2013-05-10 19:52:00,
2013-05-10 14:01:00,72.0,33.0,30.09,ENE,71,10.0,21.0,24,0.00,,,0.00,,2013-05-10 20:01:00,
2013-05-10 14:11:00,72.0,33.0,30.09,ENE,71,10.0,21.0,24,0.00,,,0.00,,2013-05-10 20:11:00,
2013-05-10 14:21:00,69.0,36.0,30.10,NNW,348,9.0,24.0,30,0.00,,,0.00,,2013-05-10 20:21:00,
2013-05-10 14:31:00,69.0,36.0,30.10,NNW,348,9.0,24.0,30,0.00,,,0.00,,2013-05-10 20:31:00,
2013-05-10 14:41:00,69.0,36.0,30.10,NNW,348,9.0,24.0,30,0.00,,,0.00,,2013-05-10 20:41:00,
2013-05-10 14:52:00,69.0,39.0,30.11,East,88,15.0,26.0,33,0.00,,,0.00,,2013-05-10 20:52:00,
2013-05-10 15:01:00,68.0,39.0,30.12,NE,40,16.0,27.0,34,0.00,,,0.00,,2013-05-10 21:01:00,
2013-05-10 15:11:00,68.0,39.0,30.12,NE,40,16.0,27.0,34,0.00,,,0.00,,2013-05-10 21:11:00,
2013-05-10 15:24:00,68.0,39.0,30.12,ENE,69,13.0,19.0,35,0.00,,,0.00,,2013-05-10 21:24:00,
2013-05-10 15:32:00,69.0,41.0,30.12,ENE,71,7.0,18.0,36,0.00,,,0.00,,2013-05-10 21:32:00,
2013-05-10 15:42:00,68.0,39.0,30.11,ENE,72,12.0,19.0,35,0.00,,,0.00,,2013-05-10 21:42:00,
2013-05-10 15:52:00,68.0,39.0,30.11,ENE,72,12.0,19.0,35,0.00,,,0.00,,2013-05-10 21:52:00,
2013-05-10 16:02:00,65.0,43.0,30.11,ENE,72,7.0,18.0,44,0.01,,,0.01,,2013-05-10 22:02:00,
2013-05-10 16:12:00,65.0,43.0,30.11,ENE,72,7.0,18.0,44,0.01,,,0.01,,2013-05-10 22:12:00,
2013-05-10 16:22:00,67.0,43.0,30.11,ENE,67,6.0,15.0,41,0.01,,,0.01,,2013-05-10 22:22:00,
2013-05-10 16:32:00,66.0,42.0,30.11,ESE,119,9.0,14.0,41,0.02,,,0.02,,2013-05-10 22:32:00,
2013-05-10 16:42:00,67.0,41.0,30.11,ENE,68,9.0,17.0,38,0.02,,,0.02,,2013-05-10 22:42:00,
2013-05-10 16:52:00,67.0,41.0,30.11,ENE,68,9.0,17.0,38,0.02,,,0.02,,2013-05-10 22:52:00,
2013-05-10 17:02:00,67.0,39.0,30.11,ENE,78,12.0,22.0,36,0.01,,,0.02,,2013-05-10 23:02:00,
2013-05-10 17:12:00,67.0,39.0,30.11,ENE,78,12.0,22.0,36,0.01,,,0.02,,2013-05-10 23:12:00,
2013-05-10 17:22:00,67.0,38.0,30.11,ENE,78,12.0,24.0,35,0.01,,,0.02,,2013-05-10 23:22:00,
2013-05-10 17:32:00,68.0,39.0,30.11,East,91,13.0,26.0,34,0.00,,,0.02,,2013-05-10 23:32:00,
2013-05-10 17:41:00,67.0,36.0,30.12,ENE,67,13.0,25.0,32,0.00,,,0.02,,2013-05-10 23:41:00,
2013-05-10 17:52:00,67.0,36.0,30.12,ENE,67,13.0,25.0,32,0.00,,,0.02,,2013-05-10 23:52:00,
2013-05-10 18:01:00,67.0,35.0,30.12,NNE,17,12.0,25.0,30,0.00,,,0.02,,2013-05-11 00:01:00,
2013-05-10 18:11:00,67.0,35.0,30.12,NNE,17,12.0,25.0,30,0.00,,,0.02,,2013-05-11 00:11:00,
2013-05-10 18:21:00,67.0,34.0,30.12,East,89,14.0,25.0,29,0.00,,,0.02,,2013-05-11 00:21:00,
2013-05-10 18:32:00,67.0,33.0,30.12,ENE,77,12.0,23.0,28,0.00,,,0.02,,2013-05-11 00:32:00,
2013-05-10 18:42:00,66.0,34.0,30.12,East,80,13.0,24.0,30,0.00,,,0.02,,2013-05-11 00:42:00,
2013-05-10 18:51:00,66.0,34.0,30.12,East,80,13.0,24.0,30,0.00,,,0.02,,2013-05-11 00:51:00,
2013-05-10 19:01:00,66.0,34.0,30.12,NE,56,14.0,23.0,30,0.00,,,0.02,,2013-05-11 01:01:00,
2013-05-10 19:11:00,66.0,34.0,30.12,NE,56,14.0,23.0,30,0.00,,,0.02,,2013-05-11 01:11:00,
2013-05-10 19:21:00,65.0,34.0,30.12,East,88,11.0,21.0,31,0.00,,,0.02,,2013-05-11 01:21:00,
2013-05-10 19:31:00,65.0,34.0,30.13,ENE,78,10.0,17.0,31,0.00,,,0.02,,2013-05-11 01:31:00,
2013-05-10 19:42:00,65.0,34.0,30.13,ENE,78,10.0,17.0,31,0.00,,,0.02,,2013-05-11 01:42:00,
2013-05-10 19:52:00,65.0,34.0,30.13,East,82,12.0,22.0,32,0.00,,,0.02,,2013-05-11 01:52:00,
2013-05-10 20:02:00,64.0,34.0,30.14,ESE,108,11.0,18.0,33,0.00,,,0.02,,2013-05-11 02:02:00,
2013-05-10 20:11:00,64.0,34.0,30.14,ESE,108,11.0,18.0,33,0.00,,,0.02,,2013-05-11 02:11:00,
2013-05-10 20:21:00,63.0,33.0,30.15,ENE,59,9.0,19.0,33,0.00,,,0.02,,2013-05-11 02:21:00,
2013-05-10 20:32:00,62.0,33.0,30.15,ENE,71,9.0,17.0,34,0.00,,,0.02,,2013-05-11 02:32:00,
2013-05-10 20:42:00,62.0,33.0,30.15,ENE,71,9.0,17.0,34,0.00,,,0.02,,2013-05-11 02:42:00,
2013-05-10 20:51:00,61.0,32.0,30.16,East,80,8.0,15.0,34,0.00,,,0.02,,2013-05-11 02:51:00,
2013-05-10 21:01:00,60.0,32.0,30.16,ENE,69,8.0,16.0,35,0.00,,,0.02,,2013-05-11 03:01:00,
2013-05-10 21:11:00,60.0,32.0,30.16,ENE,69,8.0,16.0,35,0.00,,,0.02,,2013-05-11 03:11:00,
2013-05-10 21:21:00,59.0,31.0,30.17,ENE,70,8.0,16.0,35,0.00,,,0.02,,2013-05-11 03:21:00,
2013-05-10 21:32:00,59.0,31.0,30.18,ENE,77,11.0,20.0,35,0.00,,,0.02,,2013-05-11 03:32:00,
2013-05-10 21:42:00,59.0,31.0,30.18,ENE,77,11.0,20.0,35,0.00,,,0.02,,2013-05-11 03:42:00,
2013-05-10 21:53:00,58.0,31.0,30.19,ENE,74,9.0,15.0,35,0.00,,,0.02,,2013-05-11 03:53:00,
2013-05-10 22:02:00,58.0,31.0,30.19,NNE,26,10.0,16.0,36,0.00,,,0.02,,2013-05-11 04:02:00,
2013-05-10 22:12:00,58.0,31.0,30.19,NNE,26,10.0,16.0,36,0.00,,,0.02,,2013-05-11 04:12:00,
2013-05-10 22:23:00,57.0,30.0,30.20,ENE,60,9.0,16.0,36,0.00,,,0.02,,2013-05-11 04:23:00,
2013-05-10 22:33:00,57.0,31.0,30.20,NE,46,8.0,16.0,37,0.00,,,0.02,,2013-05-11 04:33:00,
2013-05-10 22:43:00,57.0,31.0,30.21,NNE,27,8.0,19.0,37,0.00,,,0.02,,2013-05-11 04:43:00,
2013-05-10 22:52:00,57.0,31.0,30.21,NNE,27,8.0,19.0,37,0.00,,,0.02,,2013-05-11 04:52:00,
2013-05-10 23:02:00,57.0,30.0,30.21,ENE,68,7.0,19.0,36,0.00,,,0.02,,2013-05-11 05:02:00,
2013-05-10 23:12:00,57.0,30.0,30.21,ENE,68,7.0,19.0,36,0.00,,,0.02,,2013-05-11 05:12:00,
2013-05-10 23:21:00,57.0,30.0,30.21,ENE,74,5.0,13.0,36,0.00,,,0.02,,2013-05-11 05:21:00,
2013-05-10 23:32:00,56.0,29.0,30.21,ENE,67,6.0,11.0,36,0.00,,,0.02,,2013-05-11 05:32:00,
2013-05-10 23:42:00,56.0,29.0,30.21,ENE,67,6.0,11.0,36,0.00,,,0.02,,2013-05-11 05:42:00,
2013-05-10 23:52:00,56.0,29.0,30.22,ENE,62,5.0,12.0,36,0.00,,,0.02,,2013-05-11 05:52:00,